Regional Weather Roundup
Issued by NWS

Home | Current Version | Previous Version | Text Only | Print | Product List | Glossary Off
Versions: 1 2 3 4 5 6 7 8 9 10 11 12 13 14 15 16 17 18 19 20 21 22 23 24 25 26 27 28 29 30 31 32 33 34 35 36 37 38 39 40 41 42 43 44 45 46 47 48 49 50

000
ASUS43 KMPX 260601
RWRMN
WEATHER ROUNDUP FOR MINNESOTA
NATIONAL WEATHER SERVICE TWIN CITIES/CHANHASSEN MN
100 AM CDT THU APR 26 2018


NOTE: "FAIR" INDICATES FEW OR NO CLOUDS BELOW 12,000 FEET WITH NO
SIGNIFICANT WEATHER AND/OR OBSTRUCTIONS TO VISIBILITY. N/A MEANS
CURRENT SKY AND/OR WEATHER CONDITIONS ARE NOT AVAILABLE.

MNZ060>063-068>070-260700-
   Twin Cities Metro

CITY           SKY/WX    TMP DP  RH WIND       PRES   REMARKS
TWIN CITIES    CLOUDY    49  34  56 SW3       29.93F
6HR MIN TEMP:  49; 6HR MAX TEMP:  58;

ST PAUL        FAIR      45  36  70 CALM      29.94F
CRYSTAL        FAIR      43  31  62 CALM      29.92F
BLAINE         FAIR      45  32  61 S3        29.93F
LAKEVILLE      FAIR      41  34  75 CALM      29.94F
EDEN PRAIRIE   FAIR      45  33  63 SW3       29.93F
6HR MIN TEMP:  45; 6HR MAX TEMP:  57;

SOUTH ST PAUL  FAIR      43  32  64 CALM      29.93F
LAKE ELMO      FAIR      37  32  81 CALM      29.94F
$$
MNZ001>005-007-008-013>017-022>024-027-028-260700-
   Northwest Minnesota

CITY           SKY/WX    TMP DP  RH WIND       PRES   REMARKS
BEMIDJI        FAIR      45  30  55 S8        29.78F
HALLOCK        FAIR      50  27  40 N18       29.81S
ROSEAU         FAIR      46  37  71 N9        29.78R
WARROAD        FAIR      48  37  66 W8        29.77R
THIEF RVR FALL FAIR      46  36  68 SW12      29.77R
CROOKSTON      FAIR      48  37  66 SW12      29.77F
FOSSTON        FAIR      45  32  61 S14       29.77F
DETROIT LAKES  FAIR      48  32  53 S13       29.80F
MOORHEAD       FAIR      48  36  61 S12       29.79F
PARK RAPIDS    FAIR      43  32  65 S6        29.82F
MAHNOMEN       FAIR      46  34  62 S14       29.78F
$$
MNZ006-009>011-018-025>026-260700-
   North Central Minnesota

CITY           SKY/WX    TMP DP  RH WIND       PRES   REMARKS
BAUDETTE       FAIR      44  32  62 SW8       29.75S
FLAG ISLAND    CLOUDY    48  34  57 NW23      29.73R
INTL FALLS     FAIR      46  28  49 S6        29.76F
6HR MIN TEMP:  46; 6HR MAX TEMP:  59;

WASKISH        FAIR      48  30  49 S7        29.76F
BIG FORK       FAIR      43  28  56 S6        29.80F
LONGVILLE      FAIR      45  28  53 S7        29.83F
GRAND RAPIDS   FAIR      42  26  53 S9        29.85F
CRANE LAKE     FAIR      39  27  60 S5        29.82F
ORR            FAIR      43  23  45 S5        29.78F
COOK           FAIR      45  27  49 S5        29.83S
WALKER         FAIR      45  30  55 SW7G16    29.81F
$$
MNZ012-019>021-037-260700-
   Northeast Minnesota

CITY           SKY/WX    TMP DP  RH WIND       PRES   REMARKS
DULUTH         FAIR      44  24  45 SW10      29.87F
6HR MIN TEMP:  44; 6HR MAX TEMP:  55;

ELY            FAIR      45  21  39 SW6       29.83F
HIBBING        FAIR      39  22  50 CALM      29.84F
EVELETH        FAIR      40  24  53 S3        29.86F
DULUTH HARBOR  FAIR      34  30  86 NE3       29.89F
TWO HARBORS    FAIR      36  25  64 CALM      29.86S
SILVER BAY     FAIR      30  25  80 CALM      29.86S
G MARAIS ARPRT FAIR      28  19  69 CALM      29.85F
$$
MNZ029>031-032-039>041-046>048-054>057-064-260700-
   West Central Minnesota

CITY           SKY/WX    TMP DP  RH WIND       PRES   REMARKS
FERGUS FALLS   FAIR      45  34  65 S12       29.81F
WHEATON        CLOUDY    45  36  70 SE8       29.85F
MORRIS         CLOUDY    41  36  81 S9        29.85F
ALEXANDRIA     FAIR      47  34  60 S10       29.86F
ELBOW LAKE     FAIR      43  35  73 S12       29.85F
WADENA         FAIR      43  32  65 S7        29.83F
GLENWOOD       FAIR      39  34  81 S9        29.88F
APPLETON       CLOUDY    46  36  66 S7        29.88F
BENSON         CLOUDY    43  36  75 S7        29.90F
ORTONVILLE     CLOUDY    45  34  65 S8        29.85F
WILLMAR        FAIR      39  34  81 CALM      29.93F
$$
MNZ033>034-036-042>043-049>051-058-059-260700-
   Central Minnesota

CITY           SKY/WX    TMP DP  RH WIND       PRES   REMARKS
ST CLOUD       FAIR      40  33  76 S5        29.90F
6HR MIN TEMP:  40; 6HR MAX TEMP:  57;

SAUK CENTRE    FAIR      40  33  77 S6        29.89F
PAYNESVILLE    FAIR      44  35  70 S7        29.91F
AITKIN         FAIR      39  27  60 S3        29.86F
PINE RIVER     FAIR      39  28  65 S5        29.88F
BRAINERD       FAIR      43  29  57 S8        29.87F
STAPLES        FAIR      41  30  65 S7        29.85F
LONG PRAIRIE   FAIR      41  32  70 SE8       29.88F
LITTLE FALLS   FAIR      41  27  56 S3        29.89F
LITCHFIELD     FAIR      43  36  75 CALM      29.92F
BUFFALO        FAIR      40  33  75 CALM      29.94S
MAPLE LAKE     FAIR      38  35  88 CALM      29.93F
HUTCHINSON     FAIR      41  37  86 CALM      29.94S
$$
MNZ037-044-045-052-053-260700-
   East Central Minnesota

CITY           SKY/WX    TMP DP  RH WIND       PRES   REMARKS
PRINCETON      FAIR      41  30  65 S3        29.91F
MORA           FAIR      41  28  60 CALM      29.92F
CAMBRIDGE      FAIR      46  30  53 S5        29.92F
RUSH CITY      MOCLDY    44  29  57 S5        29.91F
MOOSE LAKE     FAIR      36  25  64 W3        29.88F
HINCKLEY       FAIR      37  28  70 CALM      29.91S
CLOQUET        FAIR      43  19  39 SW6       29.87F
MCGREGOR       FAIR      41  28  60 CALM      29.88F
$$
MNZ071>073-080-081-089-090-097-098-260700-
   Southwest Minnesota

CITY           SKY/WX    TMP DP  RH WIND       PRES   REMARKS
MONTEVIDEO     CLOUDY    45  36  70 SW3       29.90F
GRANITE FALLS  CLOUDY    42  38  84 S8        29.92S
CANBY          CLOUDY    45  34  64 S3        29.90S
MARSHALL       PTCLDY    41  33  73 SW12      29.90F
REDWOOD FALLS  PTCLDY    43  35  73 S10       29.90F
OLIVIA         CLOUDY    43  32  65 S5        29.91F
PIPESTONE      CLOUDY   N/A N/A N/A SW7       29.92F
WINDOM         CLOUDY    45  25  45 S6        29.94F
WORTHINGTON    CLOUDY    43  32  65 S8        29.95F
JACKSON        CLOUDY    41  34  75 S7        29.95F
TRACY          CLOUDY    46  35  64 SW13      29.90F
SLAYTON        CLOUDY    41  33  73 S6        29.94F
$$
MNZ065>067-074>077-082>085-091>093-260700-
   South Central Minnesota

CITY           SKY/WX    TMP DP  RH WIND       PRES   REMARKS
MANKATO        FAIR      45  34  65 S6        29.94F
NEW ULM        PTCLDY    43  34  70 S9        29.93F
ST JAMES       CLOUDY    41  36  81 S5        29.95F
FAIRMONT       CLOUDY    41  37  86 S7        29.96S
GLENCOE        FAIR      46  36  69 S3        29.92F
OWATONNA       FAIR      43  36  75 S3        29.95F
WASECA         FAIR      39  34  81 CALM      29.96F
ALBERT LEA     FAIR      39  37  93 CALM      29.96S
$$
MNZ078>079-086>088-094>096-260700-
   Southeast Minnesota

CITY           SKY/WX    TMP DP  RH WIND       PRES   REMARKS
ROCHESTER      FAIR      41  33  73 SW6       29.96F
6HR MIN TEMP:  41; 6HR MAX TEMP:  56;

RED WING       FAIR      37  27  65 CALM      29.94F
STANTON        FAIR      39  33  80 SW5       29.93F
DODGE CENTER   FAIR      39  34  81 SW6       29.95S
WINONA         FAIR      37  32  81 NW3       29.94F
AUSTIN         FAIR      39  36  87 CALM      29.96S
PRESTON        FAIR      43  30  59 S5        29.96F
$$
ABBREVIATIONS USED IN REMARKS
   TC - TEMPERATURES IN CELSIUS
  WCI - WIND CHILL INDEX
   HX - HEAT INDEX
  VSB - VISIBILITY
$$




USA.gov is the U.S. government's official web portal to all federal, state and local government web resources and services.